Weather reports worldwide

Advertisment
Greenville, United States of America (72312): temperature & dewpoint: 16.07.2019 02:00:00 - 22.07.2019 02:00:00 (EDT)Greenville, United States of America (72312): wind speed & gusts: 16.07.2019 02:00:00 - 22.07.2019 02:00:00 (EDT)Greenville, United States of America (72312): wind direction: 16.07.2019 02:00:00 - 22.07.2019 02:00:00 (EDT)Greenville, United States of America (72312): reduced air pressure: 16.07.2019 02:00:00 - 22.07.2019 02:00:00 (EDT)Greenville, United States of America (72312): visibility: 16.07.2019 02:00:00 - 22.07.2019 02:00:00 (EDT)Greenville, United States of America (72312): precipitation: 16.07.2019 02:00:00 - 22.07.2019 02:00:00 (EDT)
Date & Time tt [°C] td [°C] ff [km/h] ff [kn] fx [km/h] fx [kn] dd ppp [hPa] vv [km] rr [mm]
22.07.2019 02:00:00 25,0 19,4 9 5 - - WSW 1015,1 16 -
22.07.2019 01:00:00 25,6 19,4 9 5 - - SW 1015,6 16 -
22.07.2019 00:00:00 26,1 18,9 11 6 - - SW 1015,7 16 -
21.07.2019 23:00:00 27,2 18,9 13 7 - - SW 1015,7 16 0,0
21.07.2019 22:00:00 27,8 19,4 13 7 - - SW 1015,5 16 -
21.07.2019 21:00:00 28,9 20,0 13 7 - - SW 1014,9 16 -
21.07.2019 20:00:00 30,0 20,0 16 9 - - SW 1014,8 16 0,0
21.07.2019 19:00:00 31,1 19,4 21 11 - - SW 1014,4 16 -
21.07.2019 18:00:00 32,2 20,0 24 13 - - SW 1014,4 16 -
21.07.2019 17:00:00 31,7 20,6 18 10 - - SW 1015,0 16 0,0
21.07.2019 16:00:00 32,8 20,6 28 15 - - SW 1014,9 16 -
21.07.2019 15:00:00 32,2 20,6 24 13 - - SSW 1015,6 16 -
21.07.2019 14:00:00 31,7 20,6 16 9 - - WSW 1016,2 16 0,0
21.07.2019 13:00:00 30,6 20,6 18 10 - - SW 1016,8 16 -
21.07.2019 12:00:00 30,0 21,1 16 9 - - SW 1017,1 16 -
21.07.2019 11:00:00 28,3 20,6 21 11 - - SW 1017,1 16 0,0
21.07.2019 10:00:00 27,8 21,1 16 9 - - SW 1017,1 16 -
21.07.2019 09:00:00 26,1 21,7 16 9 - - WSW 1017,5 16 -
21.07.2019 08:00:00 23,9 21,7 8 4 - - WSW 1016,7 16 0,0
21.07.2019 07:00:00 22,8 20,6 8 4 - - SW 1016,2 16 -
21.07.2019 06:00:00 22,8 21,1 11 6 - - WSW 1016,2 16 -
21.07.2019 05:00:00 22,8 21,1 8 4 - - SW 1015,9 16 0,0
21.07.2019 04:00:00 23,3 21,7 5 3 - - SW 1015,4 16 -
21.07.2019 03:00:00 23,9 21,1 5 3 - - SSW 1015,3 16 -
21.07.2019 02:00:00 24,4 21,1 9 5 - - SSW 1015,7 16 0,0
21.07.2019 01:00:00 26,1 21,7 11 6 - - WSW 1017,0 16 -
21.07.2019 00:00:00 26,1 21,7 9 5 - - SW 1016,8 16 -
20.07.2019 23:00:00 26,1 21,7 5 3 - - SW 1016,8 16 0,0
20.07.2019 22:00:00 26,7 21,1 9 5 - - SW 1016,1 16 -
20.07.2019 21:00:00 27,2 21,1 9 5 - - SSW 1015,7 16 -
20.07.2019 20:00:00 29,4 21,1 11 6 - - S 1015,1 16 0,0
20.07.2019 19:00:00 30,6 21,1 16 9 - - SSW 1015,1 16 -
20.07.2019 18:00:00 30,6 21,1 16 9 - - SSW 1015,4 16 -
20.07.2019 17:00:00 31,1 21,7 18 10 - - SSW 1015,6 16 0,0
20.07.2019 16:00:00 31,7 22,8 11 6 - - SSW 1016,3 16 -
20.07.2019 15:00:00 31,1 21,7 15 8 - - SSW 1016,1 16 -
20.07.2019 14:00:00 30,6 22,2 13 7 - - S 1016,6 16 0,0
20.07.2019 13:00:00 28,9 22,8 13 7 - - S 1017,5 16 -
20.07.2019 12:00:00 28,3 22,8 9 5 - - S 1017,5 16 -
20.07.2019 11:00:00 26,1 22,2 5 3 - - S 1017,8 16 0,0
20.07.2019 10:00:00 25,0 22,8 9 5 - - SSW 1018,0 16 -
20.07.2019 09:00:00 23,3 21,7 9 5 - - SSW 1018,1 13 -
20.07.2019 08:00:00 23,3 21,7 13 7 - - SW 1017,8 11 -
20.07.2019 07:00:00 22,8 22,2 9 5 - - SW 1017,2 10 -
20.07.2019 06:00:00 22,8 21,7 5 3 - - SW 1016,4 11 -
20.07.2019 05:00:00 22,8 21,7 8 4 - - W 1015,2 13 -
20.07.2019 04:00:00 22,8 21,7 11 6 - - E 1015,9 11 0,8
20.07.2019 03:00:00 22,8 21,7 0 0 - - N 1015,8 8 2,3
20.07.2019 02:00:00 23,3 21,1 8 4 - - N 1017,5 8 0,5
20.07.2019 01:00:00 23,9 20,6 11 6 - - SSW 1017,5 16 -
20.07.2019 00:00:00 24,4 21,1 16 9 - - SW 1017,3 10 -
19.07.2019 23:00:00 26,1 21,1 16 9 - - SSW 1016,6 16 0,0
19.07.2019 22:00:00 26,7 21,7 11 6 - - SW 1016,4 16 -
19.07.2019 21:00:00 27,8 21,1 18 10 - - SW 1015,3 16 -
19.07.2019 20:00:00 28,3 20,0 11 6 - - WSW 1015,0 16 0,0
19.07.2019 19:00:00 28,9 21,7 11 6 - - SW 1015,0 16 -
19.07.2019 18:00:00 31,7 21,1 8 4 - - NE 1014,6 16 -
19.07.2019 17:00:00 33,9 20,6 9 5 - - ENE 1015,0 16 0,0
19.07.2019 16:00:00 33,3 20,6 - - - - - 1015,5 16 -
19.07.2019 15:00:00 33,3 20,6 11 6 - - NE 1016,0 16 -
19.07.2019 14:00:00 31,7 21,1 8 4 - - NNW 1016,8 16 0,0
19.07.2019 13:00:00 32,2 22,2 5 3 - - N 1017,4 16 -
19.07.2019 12:00:00 30,6 21,1 9 5 - - NNE 1017,7 16 -
19.07.2019 11:00:00 31,1 21,7 5 3 - - WNW 1017,9 16 0,0
19.07.2019 10:00:00 28,9 21,1 5 3 - - - 1017,9 16 -
19.07.2019 09:00:00 27,2 21,7 5 3 - - SSW 1017,5 16 -
19.07.2019 08:00:00 24,4 21,7 0 0 - - N 1016,6 15 0,0
19.07.2019 07:00:00 22,2 21,1 0 0 - - N 1016,2 10 -
19.07.2019 06:00:00 22,8 21,1 0 0 - - N 1015,5 16 -
19.07.2019 05:00:00 22,8 21,7 0 0 - - N 1015,3 16 0,0
19.07.2019 04:00:00 23,3 21,7 0 0 - - N 1015,0 16 -
19.07.2019 03:00:00 24,4 21,7 11 6 - - SSW 1015,1 16 -
19.07.2019 02:00:00 23,9 21,7 9 5 - - SW 1015,4 16 0,0
19.07.2019 01:00:00 25,6 21,7 8 4 - - WSW 1015,7 16 -
19.07.2019 00:00:00 25,0 22,2 11 6 - - SW 1015,8 16 -
18.07.2019 23:00:00 25,0 21,1 9 5 - - S 1015,8 16 0,0
18.07.2019 22:00:00 25,0 20,6 5 3 - - WSW 1015,4 16 -
18.07.2019 21:00:00 25,6 20,6 0 0 - - N 1015,4 16 -
18.07.2019 20:00:00 26,7 20,6 13 7 - - SSW 1014,9 16 0,0
18.07.2019 19:00:00 27,8 20,0 9 5 - - SW 1015,0 16 -
18.07.2019 18:00:00 26,1 19,4 0 0 - - N 1014,8 16 -
18.07.2019 17:00:00 25,0 20,0 0 0 - - N 1015,3 16 0,0
18.07.2019 16:00:00 28,3 18,3 9 5 - - - 1015,6 16 -
18.07.2019 15:00:00 32,8 22,2 15 8 - - WSW 1014,9 16 -
18.07.2019 14:00:00 31,7 22,2 8 4 - - W 1015,4 16 0,0
18.07.2019 13:00:00 30,6 21,7 16 9 - - W 1016,1 16 -
18.07.2019 12:00:00 30,6 22,2 13 7 - - WSW 1016,1 16 -
18.07.2019 11:00:00 30,0 21,7 13 7 - - W 1016,5 16 0,0
18.07.2019 10:00:00 26,7 22,2 8 4 - - WSW 1016,7 16 -
18.07.2019 09:00:00 25,0 21,7 0 0 - - N 1016,5 16 -
18.07.2019 08:00:00 23,9 21,1 8 4 - - W 1016,5 16 0,0
18.07.2019 07:00:00 22,2 21,1 5 3 - - WSW 1016,0 13 -
18.07.2019 06:00:00 22,2 21,1 9 5 - - WSW 1015,7 15 -
18.07.2019 05:00:00 22,8 21,7 11 6 - - SSW 1015,1 16 0,0
18.07.2019 04:00:00 22,8 21,7 0 0 - - N 1015,0 16 -
18.07.2019 03:00:00 23,3 22,2 8 4 - - WSW 1015,6 16 -
18.07.2019 02:00:00 23,9 22,2 13 7 - - WSW 1016,1 16 0,0
18.07.2019 01:00:00 24,4 22,2 15 8 - - WSW 1016,3 16 -
18.07.2019 00:00:00 23,9 22,2 11 6 - - WSW 1016,4 16 -
17.07.2019 23:00:00 23,9 21,7 15 8 - - WSW 1016,7 16 0,0
17.07.2019 22:00:00 23,3 21,7 13 7 - - WSW 1016,4 16 -
17.07.2019 21:00:00 23,9 21,1 9 5 - - WSW 1016,2 16 -
17.07.2019 20:00:00 23,9 21,7 9 5 - - SSW 1015,6 16 -
17.07.2019 19:00:00 24,4 21,1 8 4 - - SSW 1016,4 16 0,0
17.07.2019 18:00:00 22,8 21,7 0 0 - - N 1017,1 16 -
17.07.2019 17:00:00 23,3 20,6 11 6 65 35 W 1017,6 16 10,4
17.07.2019 16:00:00 31,1 19,4 37 20 50 27 W 1016,6 16 -
17.07.2019 15:00:00 31,7 19,4 9 5 - - - 1017,1 16 -
17.07.2019 14:00:00 32,8 20,0 26 14 - - WSW 1017,8 16 0,0
17.07.2019 13:00:00 32,2 20,0 24 13 - - WSW 1018,2 16 -
17.07.2019 12:00:00 31,7 21,1 24 13 - - WSW 1018,6 16 -
17.07.2019 11:00:00 30,6 21,1 22 12 - - WSW 1018,7 16 0,0
17.07.2019 10:00:00 30,0 21,1 18 10 - - WSW 1018,4 16 -
17.07.2019 09:00:00 28,3 22,2 13 7 - - WSW 1018,2 16 -
17.07.2019 08:00:00 25,0 21,7 5 3 - - SW 1017,8 16 0,0
17.07.2019 07:00:00 22,2 20,6 8 4 - - SSW 1018,1 16 -
17.07.2019 06:00:00 22,2 20,0 9 5 - - SW 1017,7 16 -
17.07.2019 05:00:00 23,3 20,6 0 0 - - N 1017,5 16 0,0
17.07.2019 04:00:00 23,3 20,6 5 3 - - SSW 1017,2 16 -
17.07.2019 03:00:00 23,9 20,6 5 3 - - S 1017,9 16 -
17.07.2019 02:00:00 23,9 21,1 5 3 - - SSW 1018,3 16 0,0
17.07.2019 01:00:00 25,0 21,1 5 3 - - SW 1018,7 16 -
17.07.2019 00:00:00 25,6 21,1 5 3 - - S 1018,8 16 -
16.07.2019 23:00:00 26,1 21,1 0 0 - - N 1018,8 16 0,0
16.07.2019 22:00:00 26,7 20,6 0 0 - - N 1018,4 16 -
16.07.2019 21:00:00 28,9 20,0 0 0 - - N 1017,8 16 -
16.07.2019 20:00:00 30,6 20,0 8 4 - - SW 1017,5 16 0,0
16.07.2019 19:00:00 32,2 20,6 18 10 - - W 1017,6 16 -
16.07.2019 18:00:00 33,3 20,0 9 5 - - W 1017,6 16 -
16.07.2019 17:00:00 32,2 19,4 16 9 - - W 1018,1 16 0,0
16.07.2019 16:00:00 33,3 20,0 22 12 - - SW 1018,5 16 -
16.07.2019 15:00:00 33,9 20,0 21 11 - - SW 1019,2 16 -
16.07.2019 14:00:00 32,8 20,0 15 8 - - W 1019,9 16 0,0
16.07.2019 13:00:00 31,7 20,6 13 7 - - SW 1020,2 16 -
16.07.2019 12:00:00 31,7 20,0 13 7 - - W 1020,5 16 -
16.07.2019 11:00:00 31,7 21,1 11 6 - - WSW 1020,5 16 0,0
16.07.2019 10:00:00 29,4 20,6 5 3 - - SW 1020,6 16 -
16.07.2019 09:00:00 27,2 21,1 0 0 - - N 1020,6 16 -
16.07.2019 08:00:00 23,9 20,0 0 0 - - N 1020,4 16 0,0
16.07.2019 07:00:00 22,2 18,9 0 0 - - N 1020,1 16 -
16.07.2019 06:00:00 22,2 18,3 0 0 - - N 1019,5 16 -
16.07.2019 05:00:00 22,2 18,3 0 0 - - N 1018,8 16 0,0
16.07.2019 04:00:00 22,2 18,3 0 0 - - N 1018,5 16 -
16.07.2019 03:00:00 22,8 18,3 0 0 - - N 1018,7 16 -
16.07.2019 02:00:00 21,7 19,4 0 0 - - N 1019,0 16 0,0

tt = temperature
td = dewpoint
ff = wind speed
fx = gusts
dd = wind direction
ppp = reduced air pressure
vv = visibility
rr = precipitation

Next stations